Andalusia, AL

9:27 AM CDT on August 19, 2017 (GMT -0500)
Andalusia

Weather History for K79J - January, 2014

Change the Weather History Date:

Wednesday, January 15, 2014

  Actual Average (KCEW) Record (KCEW)
Temperature  
Mean Temperature 51 °F -  
Max Temperature 66 °F 58 °F 78 °F (1952)
Min Temperature 36 °F 33 °F 18 °F (1982)
Degree Days  
Heating Degree Days 14    
Growing Degree Days 1 (Base 50)    
Moisture  
Dew Point 28 °F    
Average Humidity 49    
Maximum Humidity 86    
Minimum Humidity 17    
Precipitation  
Precipitation 0.00 in - - ()
Sea Level Pressure  
Sea Level Pressure 30.07 in    
Wind  
Wind Speed 6 mph (NNW)    
Max Wind Speed 17 mph    
Max Gust Speed 23 mph    
Visibility 10 miles    
Events Snow    
Averages and records for this station are not official NWS values.
T = Trace of Precipitation, MM = Missing Value Source: NWS Daily Summary

Daily Weather History Graph

Daily Weather History Graph

Search for Another Location

Airport or City:

Trip Planner

Search our weather history database for the weather conditions in past years. The results will help you decide how hot, cold, wet, or windy it might be!

Date:

Astronomy

Jan. 15, 2014 Rise Set
Actual Time 6:44 AM CST 5:05 PM CST
Civil Twilight 6:18 AM CST 5:31 PM CST
Nautical Twilight 5:48 AM CST 6:01 PM CST
Astronomical Twilight 5:19 AM CST 6:30 PM CST
Moon 4:58 PM CST (1/15) 6:03 AM CST (1/15)
Length of Visible Light 11h 12m
Length of Day
10h 20m
Full, 100% of the Moon is Illuminated
Jan 15
Full
Jan 15
Full
Jan 23
Last Quarter
Jan 30
New
Feb 6
First Quarter

Hourly Weather History & Observations

Time (CST) Temp. Windchill Dew Point Humidity Pressure Visibility Wind Dir Wind Speed Gust Speed Precip Events Conditions
12:56 AM 39.0 °F - 33.1 °F 79% 30.03 in 10.0 mi Calm Calm - N/A   Clear
1:56 AM 37.0 °F - 33.1 °F 86% 30.03 in 10.0 mi Calm Calm - N/A   Clear
2:56 AM 37.0 °F - 33.1 °F 86% 30.02 in 10.0 mi Calm Calm - N/A   Clear
3:56 AM 36.0 °F - 32.0 °F 86% 30.02 in 10.0 mi Calm Calm - N/A   Clear
4:56 AM 36.0 °F - 32.0 °F 86% 30.02 in 9.0 mi Calm Calm - 0.00 in Snow Light Snow
5:56 AM 37.9 °F 32.7 °F 33.1 °F 83% 30.03 in 10.0 mi NNW 6.9 mph - 0.00 in   Clear
6:56 AM 39.9 °F 35.1 °F 34.0 °F 79% 30.06 in 10.0 mi North 6.9 mph - N/A   Clear
7:56 AM 44.1 °F 37.7 °F 36.0 °F 73% 30.10 in 10.0 mi North 12.7 mph - N/A   Clear
8:56 AM 46.9 °F - 36.0 °F 66% 30.12 in 10.0 mi NNE 16.1 mph 21.9 mph N/A   Clear
9:56 AM 51.1 °F - 37.0 °F 59% 30.11 in 10.0 mi NNE 15.0 mph 21.9 mph N/A   Partly Cloudy
10:56 AM 54.0 °F - 36.0 °F 51% 30.08 in 10.0 mi North 12.7 mph - N/A   Clear
11:56 AM 66.0 °F - 35.1 °F 32% 30.06 in 10.0 mi NNW 17.3 mph - 0.00 in   Overcast
12:56 PM 63.0 °F - 30.9 °F 30% 30.04 in 10.0 mi NNW 16.1 mph 23.0 mph 0.00 in   Partly Cloudy
1:56 PM 64.0 °F - 28.0 °F 26% 30.04 in 10.0 mi NNW 13.8 mph 20.7 mph 0.00 in   Partly Cloudy
2:56 PM 60.1 °F - 24.1 °F 25% 30.04 in 10.0 mi North 12.7 mph - N/A   Clear
3:56 PM 63.0 °F - 21.0 °F 20% 30.04 in 10.0 mi NNW 16.1 mph - N/A   Clear
4:56 PM 61.0 °F - 16.0 °F 17% 30.06 in 10.0 mi NNW 10.4 mph - N/A   Clear
5:56 PM 57.9 °F - 18.0 °F 21% 30.07 in 10.0 mi NNW 5.8 mph - N/A   Clear
6:56 PM 50.0 °F - 19.9 °F 31% 30.09 in 10.0 mi Calm Calm - N/A   Clear
7:56 PM 54.0 °F - 19.9 °F 26% 30.11 in 10.0 mi NNW 8.1 mph - N/A   Clear
8:56 PM 53.1 °F - 21.9 °F 30% 30.13 in 10.0 mi NW 9.2 mph - N/A   Clear
9:56 PM 51.1 °F - 18.0 °F 27% 30.15 in 10.0 mi North 10.4 mph - N/A   Clear
10:56 PM 51.1 °F - 18.0 °F 27% 30.15 in 10.0 mi NNW 10.4 mph - N/A   Clear
11:56 PM 48.9 °F - 17.1 °F 28% 30.15 in 10.0 mi NNW 10.4 mph - N/A   Clear